"SCET";"TARGET";"ELECTRON_DENSITY";"ERROR_FLAG";"ELECTRON_DENSITY_ERROR";"FREQ_FCE";"MEASURED_VALUE";"MEASURED_ITEM";"FREQ_PLASMA";"FREQ_UPPER_HYBRID";"FREQ_R_EQUALS_ZERO";"FREQ_L_EQUALS_ZERO";"ORBIT_NUMBER";"SATURN_RADIUS";"SATURN_IAU_LONGITUDE";"SATURN_SLS4_S_LONGITUDE";"SATURN_SLS4_N_LONGITUDE";"SATURN_SLS5_S_LONGITUDE";"SATURN_SLS5_N_LONGITUDE";"SATURN_LOCAL_TIME";"SATURN_KRONOGRAPHIC_LATITUDE";"SATURN_MAGNETIC_LATITUDE";"SATURN_L";"SATURN_L_OFFSET";"SATURN_SOLAR_EQUATORIAL_X";"SATURN_SOLAR_EQUATORIAL_Y";"SATURN_SOLAR_EQUATORIAL_Z";"SATURN_ALTITUDE";"ENCELADUS_ENCOUNTER_NUMBER";"ENCELADUS_RADIUS";"ENCELADUS_COROTATIONAL_X";"ENCELADUS_COROTATIONAL_Y";"ENCELADUS_COROTATIONAL_Z";"ENCELADUS_TRUE_ANOMALY";"ENCELADUS_PERIAPSIS_TIME";"JUPITER_RADIUS";"JUPITER_SYSTEMIII_LONGITUDE";"JUPITER_MAGNETIC_LATITUDE";"JUPITER_MAGNETIC_LOCAL_TIME";"JUPITER_L";"IO_PHASE";"EARTH_RADIUS";"EARTH_MAGNETIC_LATITUDE";"EARTH_LOCAL_TIME";"EARTH_L"
"[UTC]";"[0=Saturn, 1=Enceladus, 2=Jupiter, 3=Earth]";"[cm-3]";"[0=automated, 1=manual]";"[normalized density error]";"[Hz]";"[Hz]";"[0=upper hybrid frequency, 1=plasma frequency cutoff]";"[Hz]";"[Hz]";"[Hz]";"[Hz}";"[0, A, B, C, 3, 4, ... , 292, 293]";"[Rs where 1Rs=60268km]";"[degrees]";"[degrees]";"[degrees]";"[degrees]";"[degrees]";"[hours]";"[degrees]";"[degrees where offset=2293km north]";"[Rs where 1Rs=60268km]";"[Rs where 1Rs=60268km and offset=2293km north]";"[Rs where 1Rs=60268km]";"[Rs where 1Rs=60268km]";"[Rs where 1Rs=60268km]";"[km where ellipsoid a,b=60268km and c=54364km]";"[E0, E1, E2, ... , E21, E22]";"[Renc where 1Renc=252.1km]";"[Renc where 1Renc=252.1km]";"[Renc where 1Renc=252.1km]";"[Renc where 1Renc=252.1km]";"[degrees]";"[UTC]";"[Rj where 1Rj=71492km]";"[degrees]";"[degrees using JRM09 model]";"[hours using JRM09 model]";"[Rj where 1Rj=71492km]";"[degrees]";"[Re where 1Re=6378.1366km]";"[degrees]";"[hours]";"[Re where 1Re=6378.1366km]"
2006-09-25T21:29:47.306Z;0;1.2900e+01;0;     0.182;  7937.692;  33219.352; 0;  32257.066;  33219.352;  36469.156;  28531.463; 29;   4.165; 205.855; 164.342;  29.431; 181.743;  41.638;  13.739;  -6.402;  -6.921;   4.218;   4.166;   3.718;   1.820;  -0.464;;;;;;;;;;;;;;;;;;
2006-09-25T21:29:55.306Z;0;1.3200e+01;0;     0.194;  7937.692;  33581.273; 0;  32629.664;  33581.273;  36838.996;  28901.303; 29;   4.166; 205.907; 164.392;  29.483; 181.792;  41.690;  13.741;  -6.384;  -6.904;   4.218;   4.166;   3.718;   1.822;  -0.463;;;;;;;;;;;;;;;;;;
2006-09-25T21:30:03.306Z;0;1.3670e+01;0;     0.175;  7937.692;  34134.273; 0;  33198.520;  34134.273;  37403.758;  29466.066; 29;   4.166; 205.958; 164.442;  29.535; 181.842;  41.742;  13.742;  -6.366;  -6.886;   4.218;   4.166;   3.717;   1.824;  -0.462;;;;;;;;;;;;;;;;;;
2006-09-25T21:30:11.306Z;0;1.3590e+01;0;     0.184;  7937.692;  34046.629; 0;  33108.398;  34046.629;  37314.277;  29376.584; 29;   4.167; 206.010; 164.492;  29.587; 181.892;  41.794;  13.744;  -6.349;  -6.868;   4.218;   4.167;   3.717;   1.826;  -0.461;;;;;;;;;;;;;;;;;;
2006-09-25T21:30:19.305Z;0;1.3940e+01;0;     0.172;  7937.692;  34452.121; 0;  33525.238;  34452.121;  37728.191;  29790.500; 29;   4.167; 206.061; 164.543;  29.639; 181.943;  41.846;  13.745;  -6.331;  -6.850;   4.218;   4.167;   3.717;   1.827;  -0.459;;;;;;;;;;;;;;;;;;
2006-09-25T21:30:27.305Z;0;1.3580e+01;0;     0.162;  7937.692;  34026.520; 0;  33087.719;  34026.520;  37293.742;  29356.051; 29;   4.168; 206.113; 164.593;  29.691; 181.993;  41.897;  13.747;  -6.313;  -6.832;   4.219;   4.168;   3.717;   1.829;  -0.458;;;;;;;;;;;;;;;;;;
2006-09-25T21:30:35.305Z;0;1.4310e+01;0;     0.178;  7937.692;  34889.223; 0;  33974.270;  34889.223;  38174.148;  30236.455; 29;   4.168; 206.164; 164.643;  29.743; 182.044;  41.949;  13.748;  -6.295;  -6.814;   4.219;   4.168;   3.716;   1.831;  -0.457;;;;;;;;;;;;;;;;;;
2006-09-25T21:32:35.305Z;0;1.5990e+01;0;     0.158;  7887.460;  36763.191; 0;  35907.105;  36763.191;  40066.758;  32179.299; 29;   4.175; 206.937; 165.399;  30.523; 182.804;  42.723;  13.772;  -6.028;  -6.547;   4.221;   4.174;   3.713;   1.858;  -0.438;;;;;;;;;;;;;;;;;;
2006-09-25T21:32:43.305Z;0;1.6040e+01;0;     0.150;  7887.460;  36818.055; 0;  35963.273;  36818.055;  40122.594;  32235.133; 29;   4.175; 206.988; 165.450;  30.575; 182.855;  42.775;  13.774;  -6.010;  -6.529;   4.221;   4.175;   3.712;   1.860;  -0.437;;;;;;;;;;;;;;;;;;
2006-09-25T21:32:51.305Z;0;1.6250e+01;0;     0.146;  7887.460;  37050.922; 0;  36201.641;  37050.922;  40359.547;  32472.088; 29;   4.175; 207.040; 165.500;  30.627; 182.906;  42.826;  13.775;  -5.993;  -6.511;   4.221;   4.175;   3.712;   1.861;  -0.436;;;;;;;;;;;;;;;;;;
2006-09-25T21:32:59.304Z;0;1.6430e+01;0;     0.139;  7887.460;  37241.004; 0;  36396.160;  37241.004;  40552.926;  32665.467; 29;   4.176; 207.092; 165.550;  30.679; 182.957;  42.877;  13.777;  -5.975;  -6.494;   4.222;   4.176;   3.712;   1.863;  -0.435;;;;;;;;;;;;;;;;;;
2006-09-25T21:33:07.304Z;0;1.6700e+01;0;     0.147;  7863.940;  37528.059; 0;  36694.871;  37528.059;  40836.902;  32972.961; 29;   4.176; 207.143; 165.601;  30.731; 183.007;  42.929;  13.778;  -5.957;  -6.476;   4.222;   4.176;   3.712;   1.865;  -0.433;;;;;;;;;;;;;;;;;;
2006-09-25T21:33:15.304Z;0;1.6510e+01;0;     0.136;  7863.940;  37322.711; 0;  36484.836;  37322.711;  40628.066;  32764.127; 29;   4.177; 207.195; 165.651;  30.783; 183.058;  42.980;  13.780;  -5.939;  -6.458;   4.222;   4.177;   3.711;   1.867;  -0.432;;;;;;;;;;;;;;;;;;
2006-09-25T21:33:23.304Z;0;1.6520e+01;0;     0.134;  7863.940;  37334.637; 0;  36497.035;  37334.637;  40640.195;  32776.258; 29;   4.177; 207.246; 165.702;  30.835; 183.109;  43.032;  13.781;  -5.922;  -6.440;   4.222;   4.177;   3.711;   1.868;  -0.431;;;;;;;;;;;;;;;;;;
2006-09-25T21:33:31.304Z;0;1.6760e+01;0;     0.145;  7863.940;  37597.199; 0;  36765.578;  37597.199;  40907.207;  33043.270; 29;   4.178; 207.298; 165.752;  30.887; 183.160;  43.083;  13.783;  -5.904;  -6.422;   4.222;   4.177;   3.711;   1.870;  -0.430;;;;;;;;;;;;;;;;;;
2006-09-25T21:33:39.304Z;0;1.6670e+01;0;     0.136;  7863.940;  37495.578; 0;  36661.652;  37495.578;  40803.871;  32939.934; 29;   4.178; 207.350; 165.803;  30.939; 183.212;  43.135;  13.785;  -5.886;  -6.405;   4.222;   4.178;   3.711;   1.872;  -0.428;;;;;;;;;;;;;;;;;;
2006-09-25T21:33:47.304Z;0;1.6580e+01;0;     0.144;  7863.940;  37399.004; 0;  36562.875;  37399.004;  40705.660;  32841.719; 29;   4.178; 207.401; 165.853;  30.992; 183.263;  43.186;  13.786;  -5.868;  -6.387;   4.223;   4.178;   3.710;   1.874;  -0.427;;;;;;;;;;;;;;;;;;
2006-09-25T21:33:55.304Z;0;1.6800e+01;0;     0.147;  7863.940;  37636.773; 0;  36806.047;  37636.773;  40947.449;  33083.508; 29;   4.179; 207.453; 165.904;  31.044; 183.314;  43.238;  13.788;  -5.851;  -6.369;   4.223;   4.179;   3.710;   1.876;  -0.426;;;;;;;;;;;;;;;;;;
2006-09-25T21:34:03.304Z;0;1.6910e+01;0;     0.143;  7841.428;  37749.098; 0;  36925.688;  37749.098;  41053.965;  33212.539; 29;   4.179; 207.505; 165.954;  31.096; 183.365;  43.289;  13.789;  -5.833;  -6.351;   4.223;   4.179;   3.710;   1.877;  -0.425;;;;;;;;;;;;;;;;;;
2006-09-25T21:34:11.304Z;0;1.6990e+01;0;     0.158;  7841.428;  37841.383; 0;  37020.023;  37841.383;  41147.777;  33306.352; 29;   4.180; 207.556; 166.005;  31.148; 183.416;  43.340;  13.791;  -5.815;  -6.333;   4.223;   4.180;   3.710;   1.879;  -0.423;;;;;;;;;;;;;;;;;;
2006-09-25T21:34:19.304Z;0;1.6910e+01;0;     0.143;  7841.428;  37755.422; 0;  36932.152;  37755.422;  41060.395;  33218.969; 29;   4.180; 207.608; 166.055;  31.200; 183.467;  43.392;  13.792;  -5.797;  -6.316;   4.223;   4.180;   3.709;   1.881;  -0.422;;;;;;;;;;;;;;;;;;
2006-09-25T21:34:27.304Z;0;1.8000e+01;0;     0.158;  7841.428;  38898.836; 0;  38100.281;  38898.836;  42222.195;  34380.766; 29;   4.181; 207.659; 166.106;  31.252; 183.518;  43.443;  13.794;  -5.780;  -6.298;   4.224;   4.180;   3.709;   1.883;  -0.421;;;;;;;;;;;;;;;;;;
2006-09-25T21:34:35.304Z;0;1.8140e+01;0;     0.169;  7841.428;  39039.672; 0;  38244.059;  39039.672;  42365.219;  34523.793; 29;   4.181; 207.711; 166.156;  31.304; 183.570;  43.494;  13.795;  -5.762;  -6.280;   4.224;   4.181;   3.709;   1.884;  -0.420;;;;;;;;;;;;;;;;;;
2006-09-25T21:34:43.304Z;0;1.7730e+01;0;     0.152;  7841.428;  38620.832; 0;  37816.406;  38620.832;  41939.824;  34098.395; 29;   4.182; 207.763; 166.207;  31.356; 183.621;  43.546;  13.797;  -5.744;  -6.262;   4.224;   4.181;   3.709;   1.886;  -0.418;;;;;;;;;;;;;;;;;;
2006-09-25T21:34:51.304Z;0;1.8150e+01;0;     0.161;  7841.428;  39054.238; 0;  38258.926;  39054.238;  42380.012;  34538.582; 29;   4.182; 207.814; 166.257;  31.409; 183.672;  43.597;  13.799;  -5.727;  -6.245;   4.224;   4.182;   3.708;   1.888;  -0.417;;;;;;;;;;;;;;;;;;
2006-09-25T21:34:59.304Z;0;1.7400e+01;0;     0.174;  7841.428;  38275.188; 0;  37463.344;  38275.188;  41588.656;  33747.230; 29;   4.182; 207.866; 166.308;  31.461; 183.723;  43.648;  13.800;  -5.709;  -6.227;   4.224;   4.182;   3.708;   1.890;  -0.416;;;;;;;;;;;;;;;;;;
2006-09-25T21:35:07.304Z;0;1.8640e+01;0;     0.152;  7818.440;  39545.977; 0;  38765.398;  39545.977;  42871.230;  35052.789; 29;   4.183; 207.918; 166.358;  31.513; 183.775;  43.700;  13.802;  -5.691;  -6.209;   4.224;   4.183;   3.708;   1.891;  -0.415;;;;;;;;;;;;;;;;;;
2006-09-25T21:35:15.304Z;0;1.8250e+01;0;     0.158;  7818.440;  39155.645; 0;  38367.129;  39155.645;  42474.988;  34656.547; 29;   4.183; 207.969; 166.409;  31.565; 183.826;  43.751;  13.803;  -5.673;  -6.191;   4.225;   4.183;   3.707;   1.893;  -0.413;;;;;;;;;;;;;;;;;;
2006-09-25T21:35:23.304Z;0;1.8570e+01;0;     0.170;  7818.440;  39474.852; 0;  38692.840;  39474.852;  42799.039;  34980.598; 29;   4.184; 208.021; 166.460;  31.617; 183.877;  43.802;  13.805;  -5.656;  -6.174;   4.225;   4.183;   3.707;   1.895;  -0.412;;;;;;;;;;;;;;;;;;
2006-09-25T21:35:31.303Z;0;1.7770e+01;0;     0.182;  7818.440;  38658.590; 0;  37859.723;  38658.590;  41970.230;  34151.789; 29;   4.184; 208.073; 166.510;  31.669; 183.929;  43.853;  13.806;  -5.638;  -6.156;   4.225;   4.184;   3.707;   1.897;  -0.411;;;;;;;;;;;;;;;;;;
2006-09-25T21:35:39.303Z;0;1.8670e+01;0;     0.176;  7818.440;  39576.543; 0;  38796.582;  39576.543;  42902.254;  35083.812; 29;   4.185; 208.125; 166.561;  31.722; 183.980;  43.905;  13.808;  -5.620;  -6.138;   4.225;   4.184;   3.707;   1.899;  -0.410;;;;;;;;;;;;;;;;;;
2006-09-25T21:35:47.303Z;0;1.8370e+01;0;     0.132;  7818.440;  39279.055; 0;  38493.066;  39279.055;  42600.281;  34781.840; 29;   4.185; 208.176; 166.611;  31.774; 184.032;  43.956;  13.809;  -5.603;  -6.120;   4.225;   4.185;   3.706;   1.900;  -0.408;;;;;;;;;;;;;;;;;;
2006-09-25T21:35:55.303Z;0;1.8580e+01;0;     0.144;  7818.440;  39494.586; 0;  38712.973;  39494.586;  42819.070;  35000.629; 29;   4.186; 208.228; 166.662;  31.826; 184.083;  44.007;  13.811;  -5.585;  -6.103;   4.226;   4.185;   3.706;   1.902;  -0.407;;;;;;;;;;;;;;;;;;
2006-09-25T21:36:03.303Z;0;1.8490e+01;0;     0.147;  7794.724;  39389.793; 0;  38610.855;  39389.793;  42704.418;  34909.691; 29;   4.186; 208.280; 166.712;  31.878; 184.134;  44.058;  13.813;  -5.567;  -6.085;   4.226;   4.186;   3.706;   1.904;  -0.406;;;;;;;;;;;;;;;;;;
2006-09-25T21:36:11.303Z;0;1.8670e+01;0;     0.142;  7794.724;  39571.641; 0;  38796.352;  39571.641;  42888.980;  35094.258; 29;   4.186; 208.331; 166.763;  31.931; 184.186;  44.110;  13.814;  -5.549;  -6.067;   4.226;   4.186;   3.706;   1.906;  -0.405;;;;;;;;;;;;;;;;;;
2006-09-25T21:36:19.303Z;0;1.9520e+01;0;     0.144;  7794.724;  40428.801; 0;  39670.270;  40428.801;  43758.617;  35963.895; 29;   4.187; 208.383; 166.814;  31.983; 184.238;  44.161;  13.816;  -5.532;  -6.049;   4.226;   4.186;   3.705;   1.907;  -0.403;;;;;;;;;;;;;;;;;;
2006-09-25T21:36:27.303Z;0;1.8870e+01;0;     0.182;  7794.724;  39782.559; 0;  39011.465;  39782.559;  43103.020;  35308.297; 29;   4.187; 208.435; 166.864;  32.035; 184.289;  44.212;  13.817;  -5.514;  -6.032;   4.226;   4.187;   3.705;   1.909;  -0.402;;;;;;;;;;;;;;;;;;
2006-09-25T21:36:35.303Z;0;1.9910e+01;0;     0.173;  7794.724;  40818.258; 0;  40067.098;  40818.258;  44153.566;  36358.840; 29;   4.188; 208.487; 166.915;  32.087; 184.341;  44.263;  13.819;  -5.496;  -6.014;   4.227;   4.187;   3.705;   1.911;  -0.401;;;;;;;;;;;;;;;;;;
2006-09-25T21:36:43.303Z;0;1.9990e+01;0;     0.165;  7794.724;  40901.816; 0;  40152.223;  40901.816;  44238.289;  36443.562; 29;   4.188; 208.539; 166.966;  32.139; 184.392;  44.314;  13.820;  -5.479;  -5.996;   4.227;   4.188;   3.705;   1.913;  -0.400;;;;;;;;;;;;;;;;;;
2006-09-25T21:36:51.303Z;0;1.9400e+01;0;     0.144;  7794.724;  40317.594; 0;  39556.930;  40317.594;  43645.820;  35851.098; 29;   4.189; 208.590; 167.016;  32.192; 184.444;  44.365;  13.822;  -5.461;  -5.979;   4.227;   4.188;   3.704;   1.915;  -0.399;;;;;;;;;;;;;;;;;;
2006-09-25T21:36:59.303Z;0;1.9880e+01;0;     0.149;  7794.724;  40786.723; 0;  40034.973;  40786.723;  44121.590;  36326.867; 29;   4.189; 208.642; 167.067;  32.244; 184.496;  44.417;  13.823;  -5.443;  -5.961;   4.227;   4.189;   3.704;   1.916;  -0.397;;;;;;;;;;;;;;;;;;
2006-09-25T21:37:07.303Z;0;1.9810e+01;0;     0.160;  7769.943;  40721.168; 0;  39973.008;  40721.168;  44046.328;  36276.383; 29;   4.190; 208.694; 167.117;  32.296; 184.547;  44.468;  13.825;  -5.426;  -5.943;   4.227;   4.189;   3.704;   1.918;  -0.396;;;;;;;;;;;;;;;;;;
2006-09-25T21:37:15.303Z;0;1.9890e+01;0;     0.132;  7769.943;  40800.852; 0;  40054.180;  40800.852;  44127.121;  36357.176; 29;   4.190; 208.746; 167.168;  32.348; 184.599;  44.519;  13.827;  -5.408;  -5.925;   4.228;   4.190;   3.703;   1.920;  -0.395;;;;;;;;;;;;;;;;;;
2006-09-25T21:37:23.303Z;0;2.0350e+01;0;     0.163;  7769.943;  41245.492; 0;  40507.020;  41245.492;  44577.867;  36807.922; 29;   4.191; 208.797; 167.219;  32.401; 184.651;  44.570;  13.828;  -5.390;  -5.908;   4.228;   4.190;   3.703;   1.922;  -0.394;;;;;;;;;;;;;;;;;;
2006-09-25T21:37:31.303Z;0;2.0150e+01;0;     0.152;  7769.943;  41056.711; 0;  40314.781;  41056.711;  44386.508;  36616.566; 29;   4.191; 208.849; 167.269;  32.453; 184.702;  44.621;  13.830;  -5.373;  -5.890;   4.228;   4.190;   3.703;   1.923;  -0.392;;;;;;;;;;;;;;;;;;
2006-09-25T21:37:39.303Z;0;1.9840e+01;0;     0.132;  7769.943;  40749.652; 0;  40002.027;  40749.652;  44075.207;  36305.266; 29;   4.191; 208.901; 167.320;  32.505; 184.754;  44.672;  13.831;  -5.355;  -5.872;   4.228;   4.191;   3.703;   1.925;  -0.391;;;;;;;;;;;;;;;;;;
2006-09-25T21:37:47.303Z;0;1.9960e+01;0;     0.126;  7769.943;  40868.887; 0;  40123.484;  40868.887;  44196.098;  36426.152; 29;   4.192; 208.953; 167.371;  32.558; 184.806;  44.723;  13.833;  -5.337;  -5.855;   4.228;   4.191;   3.702;   1.927;  -0.390;;;;;;;;;;;;;;;;;;
2006-09-25T21:37:55.303Z;0;2.0060e+01;0;     0.132;  7769.943;  40959.133; 0;  40215.402;  40959.133;  44287.590;  36517.645; 29;   4.192; 209.005; 167.421;  32.610; 184.858;  44.774;  13.834;  -5.320;  -5.837;   4.229;   4.192;   3.702;   1.929;  -0.389;;;;;;;;;;;;;;;;;;
2006-09-25T21:38:03.303Z;0;1.9970e+01;0;     0.117;  7745.108;  40869.512; 0;  40128.922;  40869.512;  44187.898;  36442.789; 29;   4.193; 209.056; 167.472;  32.662; 184.910;  44.825;  13.836;  -5.302;  -5.819;   4.229;   4.192;   3.702;   1.930;  -0.387;;;;;;;;;;;;;;;;;;
2006-09-25T21:38:11.302Z;0;2.0250e+01;0;     0.136;  7745.108;  41146.262; 0;  40410.742;  41146.262;  44468.426;  36723.316; 29;   4.193; 209.108; 167.523;  32.715; 184.961;  44.876;  13.837;  -5.284;  -5.801;   4.229;   4.193;   3.702;   1.932;  -0.386;;;;;;;;;;;;;;;;;;
2006-09-25T21:38:19.302Z;0;2.0310e+01;0;     0.133;  7745.108;  41199.418; 0;  40464.867;  41199.418;  44522.301;  36777.195; 29;   4.194; 209.160; 167.574;  32.767; 185.013;  44.927;  13.839;  -5.267;  -5.784;   4.229;   4.193;   3.701;   1.934;  -0.385;;;;;;;;;;;;;;;;;;
2006-09-25T21:38:27.302Z;0;2.0550e+01;0;     0.146;  7745.108;  41436.062; 0;  40705.781;  41436.062;  44762.129;  37017.020; 29;   4.194; 209.212; 167.624;  32.819; 185.065;  44.978;  13.841;  -5.249;  -5.766;   4.230;   4.194;   3.701;   1.936;  -0.384;;;;;;;;;;;;;;;;;;
2006-09-25T21:38:35.302Z;0;2.0570e+01;0;     0.139;  7745.108;  41462.141; 0;  40732.328;  41462.141;  44788.555;  37043.445; 29;   4.195; 209.264; 167.675;  32.872; 185.117;  45.029;  13.842;  -5.231;  -5.748;   4.230;   4.194;   3.701;   1.937;  -0.382;;;;;;;;;;;;;;;;;;
2006-09-25T21:38:43.302Z;0;2.0440e+01;0;     0.139;  7745.108;  41326.730; 0;  40594.480;  41326.730;  44651.332;  36906.223; 29;   4.195; 209.316; 167.726;  32.924; 185.169;  45.080;  13.844;  -5.214;  -5.731;   4.230;   4.194;   3.700;   1.939;  -0.381;;;;;;;;;;;;;;;;;;
2006-09-25T21:38:51.302Z;0;2.0530e+01;0;     0.137;  7745.108;  41416.828; 0;  40686.199;  41416.828;  44742.637;  36997.527; 29;   4.196; 209.368; 167.776;  32.976; 185.221;  45.131;  13.845;  -5.196;  -5.713;   4.230;   4.195;   3.700;   1.941;  -0.380;;;;;;;;;;;;;;;;;;
2006-09-25T21:38:59.302Z;0;2.0530e+01;0;     0.139;  7745.108;  41422.816; 0;  40692.297;  41422.816;  44748.703;  37003.598; 29;   4.196; 209.419; 167.827;  33.029; 185.273;  45.182;  13.847;  -5.179;  -5.695;   4.230;   4.195;   3.700;   1.943;  -0.379;;;;;;;;;;;;;;;;;;
2006-09-25T21:39:07.302Z;0;2.1680e+01;0;     0.136;  7720.076;  42518.070; 0;  41811.324;  42518.070;  45849.164;  38129.086; 29;   4.196; 209.471; 167.878;  33.081; 185.325;  45.233;  13.848;  -5.161;  -5.678;   4.231;   4.196;   3.700;   1.945;  -0.377;;;;;;;;;;;;;;;;;;
2006-09-25T21:39:15.302Z;0;2.0940e+01;0;     0.144;  7720.076;  41814.133; 0;  41095.281;  41814.133;  45136.207;  37416.129; 29;   4.197; 209.523; 167.929;  33.133; 185.377;  45.284;  13.850;  -5.143;  -5.660;   4.231;   4.196;   3.699;   1.946;  -0.376;;;;;;;;;;;;;;;;;;
2006-09-25T21:39:23.302Z;0;2.1630e+01;0;     0.131;  7720.076;  42469.188; 0;  41761.613;  42469.188;  45799.664;  38079.586; 29;   4.197; 209.575; 167.979;  33.186; 185.429;  45.335;  13.851;  -5.126;  -5.642;   4.231;   4.197;   3.699;   1.948;  -0.375;;;;;;;;;;;;;;;;;;
2006-09-25T21:39:31.302Z;0;2.1550e+01;0;     0.136;  7720.076;  42393.848; 0;  41684.996;  42393.848;  45723.371;  38003.293; 29;   4.198; 209.627; 168.030;  33.238; 185.482;  45.386;  13.853;  -5.108;  -5.625;   4.231;   4.197;   3.699;   1.950;  -0.374;;;;;;;;;;;;;;;;;;
2006-09-25T21:39:39.302Z;0;2.1880e+01;0;     0.142;  7720.076;  42706.512; 0;  42002.934;  42706.512;  46039.969;  38319.891; 29;   4.198; 209.679; 168.081;  33.290; 185.534;  45.437;  13.854;  -5.090;  -5.607;   4.232;   4.198;   3.698;   1.952;  -0.372;;;;;;;;;;;;;;;;;;
2006-09-25T21:39:47.302Z;0;2.1900e+01;0;     0.134;  7720.076;  42730.941; 0;  42027.773;  42730.941;  46064.703;  38344.625; 29;   4.199; 209.731; 168.132;  33.343; 185.586;  45.488;  13.856;  -5.073;  -5.589;   4.232;   4.198;   3.698;   1.953;  -0.371;;;;;;;;;;;;;;;;;;
2006-09-25T21:39:55.302Z;0;2.1720e+01;0;     0.119;  7720.076;  42558.418; 0;  41852.352;  42558.418;  45890.020;  38169.941; 29;   4.199; 209.783; 168.182;  33.395; 185.638;  45.539;  13.858;  -5.055;  -5.572;   4.232;   4.198;   3.698;   1.955;  -0.370;;;;;;;;;;;;;;;;;;
2006-09-25T21:40:03.302Z;0;2.1730e+01;0;     0.131;  7695.156;  42564.758; 0;  41863.387;  42564.758;  45887.406;  38192.250; 29;   4.200; 209.835; 168.233;  33.448; 185.690;  45.590;  13.859;  -5.038;  -5.554;   4.232;   4.199;   3.698;   1.957;  -0.369;;;;;;;;;;;;;;;;;;
2006-09-25T21:40:11.302Z;0;2.1970e+01;0;     0.120;  7695.156;  42786.910; 0;  42089.242;  42786.910;  46112.316;  38417.160; 29;   4.200; 209.887; 168.284;  33.500; 185.740;  45.642;  13.861;  -5.020;  -5.536;   4.233;   4.199;   3.697;   1.959;  -0.367;;;;;;;;;;;;;;;;;;
2006-09-25T21:40:19.302Z;0;2.1630e+01;0;     0.112;  7695.156;  42471.496; 0;  41768.559;  42471.496;  45792.977;  38097.820; 29;   4.201; 209.938; 168.335;  33.552; 185.791;  45.695;  13.862;  -5.002;  -5.519;   4.233;   4.200;   3.697;   1.960;  -0.366;;;;;;;;;;;;;;;;;;
2006-09-25T21:40:27.302Z;0;2.1990e+01;0;     0.115;  7695.156;  42811.785; 0;  42114.527;  42811.785;  46137.500;  38442.344; 29;   4.201; 209.990; 168.386;  33.605; 185.842;  45.747;  13.864;  -4.985;  -5.501;   4.233;   4.200;   3.697;   1.962;  -0.365;;;;;;;;;;;;;;;;;;
2006-09-25T21:40:35.302Z;0;2.1670e+01;0;     0.115;  7695.156;  42505.004; 0;  41802.629;  42505.004;  45826.902;  38131.746; 29;   4.202; 210.042; 168.436;  33.657; 185.893;  45.799;  13.865;  -4.967;  -5.483;   4.233;   4.201;   3.697;   1.964;  -0.364;;;;;;;;;;;;;;;;;;
2006-09-25T21:40:43.301Z;0;2.2240e+01;0;     0.124;  7695.156;  43040.094; 0;  42346.598;  43040.094;  46368.609;  38673.453; 29;   4.202; 210.094; 168.487;  33.710; 185.944;  45.852;  13.867;  -4.950;  -5.466;   4.234;   4.201;   3.696;   1.966;  -0.362;;;;;;;;;;;;;;;;;;
2006-09-25T21:40:51.301Z;0;2.2180e+01;0;     0.126;  7695.156;  42983.086; 0;  42288.652;  42983.086;  46310.906;  38615.750; 29;   4.202; 210.146; 168.538;  33.762; 185.995;  45.904;  13.868;  -4.932;  -5.448;   4.234;   4.202;   3.696;   1.967;  -0.361;;;;;;;;;;;;;;;;;;
2006-09-25T21:40:59.301Z;0;2.2250e+01;0;     0.118;  7695.156;  43050.551; 0;  42357.227;  43050.551;  46379.195;  38684.039; 29;   4.203; 210.198; 168.589;  33.815; 186.045;  45.956;  13.870;  -4.914;  -5.431;   4.234;   4.202;   3.696;   1.969;  -0.360;;;;;;;;;;;;;;;;;;
2006-09-25T21:41:07.301Z;0;2.2270e+01;0;     0.117;  7670.264;  43064.234; 0;  42375.645;  43064.234;  46383.969;  38713.707; 29;   4.203; 210.250; 168.640;  33.867; 186.096;  46.009;  13.871;  -4.897;  -5.413;   4.234;   4.202;   3.695;   1.971;  -0.359;;;;;;;;;;;;;;;;;;
2006-09-25T21:41:15.301Z;0;2.3360e+01;0;     0.155;  7670.264;  44072.871; 0;  43400.289;  44072.871;  47404.539;  39734.277; 29;   4.204; 210.302; 168.691;  33.919; 186.147;  46.061;  13.873;  -4.879;  -5.395;   4.234;   4.203;   3.695;   1.973;  -0.357;;;;;;;;;;;;;;;;;;
2006-09-25T21:41:23.301Z;0;2.2760e+01;0;     0.141;  7670.264;  43526.195; 0;  42845.031;  43526.195;  46851.465;  39181.203; 29;   4.204; 210.354; 168.741;  33.972; 186.198;  46.114;  13.874;  -4.862;  -5.378;   4.235;   4.203;   3.695;   1.974;  -0.356;;;;;;;;;;;;;;;;;;
2006-09-25T21:41:31.301Z;0;2.2300e+01;0;     0.108;  7670.264;  43096.086; 0;  42408.016;  43096.086;  46416.207;  38745.941; 29;   4.205; 210.406; 168.792;  34.024; 186.248;  46.166;  13.876;  -4.844;  -5.360;   4.235;   4.204;   3.694;   1.976;  -0.355;;;;;;;;;;;;;;;;;;
2006-09-25T21:41:39.301Z;0;2.2610e+01;0;     0.125;  7670.264;  43387.020; 0;  42703.637;  43387.020;  46710.637;  39040.371; 29;   4.205; 210.458; 168.843;  34.077; 186.299;  46.219;  13.878;  -4.826;  -5.342;   4.235;   4.204;   3.694;   1.978;  -0.354;;;;;;;;;;;;;;;;;;
2006-09-25T21:41:47.301Z;0;2.3880e+01;0;     0.147;  7670.264;  44543.617; 0;  43878.250;  44543.617;  47880.668;  40210.402; 29;   4.206; 210.510; 168.894;  34.129; 186.350;  46.271;  13.879;  -4.809;  -5.325;   4.235;   4.205;   3.694;   1.980;  -0.352;;;;;;;;;;;;;;;;;;
2006-09-25T21:41:55.301Z;0;2.3720e+01;0;     0.138;  7670.264;  44402.613; 0;  43735.102;  44402.613;  47738.062;  40067.801; 29;   4.206; 210.562; 168.945;  34.182; 186.401;  46.324;  13.881;  -4.791;  -5.307;   4.236;   4.205;   3.694;   1.982;  -0.351;;;;;;;;;;;;;;;;;;
2006-09-25T21:42:03.301Z;0;2.3820e+01;0;     0.146;  7645.372;  44486.363; 0;  43824.477;  44486.363;  47813.570;  40168.195; 29;   4.207; 210.614; 168.996;  34.234; 186.451;  46.376;  13.882;  -4.774;  -5.290;   4.236;   4.206;   3.693;   1.983;  -0.350;;;;;;;;;;;;;;;;;;
2006-09-25T21:42:11.301Z;0;2.3980e+01;0;     0.130;  7645.372;  44630.684; 0;  43970.969;  44630.684;  47959.508;  40314.137; 29;   4.207; 210.666; 169.047;  34.287; 186.502;  46.429;  13.884;  -4.756;  -5.272;   4.236;   4.206;   3.693;   1.985;  -0.349;;;;;;;;;;;;;;;;;;